TDRS 13 (42915 NORAD) Tracking and Keplerian Element Data

This shows tracking and keplerian element data for the satellite.

Feedback or suggestion? Click here.




ElementValue
Catalog42915
NameTDRS 13
Epoch Orbit335
Epoch Day198.23735001
Epoch Year2018
RAAN331.3508
Inclination6.5971
Eccentricity0.0028638
Argument of Perigee12.4369
Mean Anonmoly347.7706
Mean Motion1.00270089
Decay Rate-3.05E-06
L11 42915U 17047A 18198.23735001 -.00000305 00000-0 00000-0 0 9997
L22 42915 6.5971 331.3508 0028638 12.4369 347.7706 1.00270089 3358

Live tracking and technical data element details for TDRS 13 (NORAD 42915). TDRS 13 can be tracked NOW for your location showing map with azimuth and elevation plus other details from your city location.

Track the satellite on the map from your city or location and see movement details for azimuth, elevation, latitude, longitude, range, height, and movement on the map or in text.







IsCatalogInMostPopularTable: catalog: 42915, numindb: 89
Update: records affected: 1



GetName: 42915 TDRS 13

Hit Count: updated at: Thu, 19 Jul 2018 03:24:59 GMT